MST,Max TemperatureF,Mean TemperatureF,Min TemperatureF,Max Dew PointF,MeanDew PointF,Min DewpointF,Max Humidity, Mean Humidity, Min Humidity, Max Sea Level PressureIn, Mean Sea Level PressureIn, Min Sea Level PressureIn, Max VisibilityMiles, Mean VisibilityMiles, Min VisibilityMiles, Max Wind SpeedMPH, Mean Wind SpeedMPH, Max Gust SpeedMPH,PrecipitationIn, CloudCover, Events, WindDirDegrees
2012-11-1,68,55,42,36,26,18,53,39,15,30.18,30.06,29.97,20,12,10,7,3,,0.00,3,,270
2012-11-2,60,51,42,30,19,9,61,27,14,30.18,30.04,29.97,20,10,10,23,10,26,0.00,3,,256
2012-11-3,55,45,35,30,29,27,70,57,33,30.20,30.18,30.14,10,10,10,8,4,,0.00,2,,327
2012-11-4,62,50,39,30,25,16,65,45,17,30.36,30.21,30.16,10,10,10,13,3,,0.00,3,,338
2012-11-5,66,50,35,30,27,19,81,51,20,30.34,30.25,30.13,20,11,10,16,6,18,0.00,2,,256
2012-11-6,64,55,46,30,27,23,53,35,24,30.29,30.23,30.20,20,11,10,17,5,24,0.00,0,,306
2012-11-7,73,57,41,30,19,7,57,29,8,30.22,30.07,29.96,10,10,10,16,5,,0.00,1,,294
2012-11-8,59,50,42,30,21,10,57,34,15,30.03,29.93,29.82,10,10,10,16,8,21,0.00,2,,281
2012-11-9,57,46,35,32,29,25,75,55,33,29.82,29.68,29.54,20,12,10,17,4,24,0.00,1,,343
2012-11-10,55,38,21,34,25,18,100,68,26,29.82,29.59,29.42,20,7,0,28,15,39,0.00,5,Fog-Snow,60
2012-11-11,33,25,17,19,9,-6,93,58,23,30.13,29.95,29.82,20,11,10,32,9,44,0.00,5,,226
2012-11-12,46,34,23,21,6,-4,60,35,16,30.25,30.20,30.14,20,12,10,36,16,48,0.00,0,,308
2012-11-13,53,42,32,23,14,-6,65,42,13,30.29,30.21,30.16,20,10,10,21,5,26,0.00,1,,301
2012-11-14,53,42,30,30,23,18,70,58,24,30.25,30.18,30.10,20,12,10,16,4,,0.00,2,,337
2012-11-15,44,38,32,30,27,21,87,69,52,30.42,30.31,30.20,20,13,7,9,3,,0.00,3,,344
2012-11-16,55,42,28,30,25,19,81,61,31,30.29,30.17,30.07,20,11,7,7,2,,0.00,2,,289
2012-11-17,62,50,39,27,23,18,57,36,18,30.12,30.07,30.04,20,10,10,21,8,29,0.00,1,,276
2012-11-18,62,50,37,27,22,16,65,38,16,30.10,30.03,29.98,20,11,10,32,8,38,0.00,1,,276
2012-11-19,55,48,39,21,19,16,45,33,23,30.26,30.19,30.11,20,11,10,17,11,24,0.00,2,,262
2012-11-20,66,52,37,28,18,7,53,35,10,30.24,30.16,30.09,20,13,10,8,4,,0.00,1,,220
2012-11-21,71,56,42,14,8,-4,31,18,6,30.09,30.00,29.91,10,10,10,18,4,,0.00,1,,270
2012-11-22,59,46,32,27,11,3,41,23,11,30.47,30.14,29.93,20,12,10,22,13,34,0.00,2,,310
2012-11-23,50,38,26,19,12,9,60,40,20,30.48,30.38,30.20,20,12,10,12,3,,0.00,1,,355
2012-11-24,64,48,33,21,6,-2,60,18,7,30.20,30.07,29.96,20,10,10,36,9,45,0.00,3,,262
2012-11-25,64,50,37,21,8,-8,45,23,6,29.99,29.93,29.79,20,10,10,30,7,37,0.00,2,,239
2012-11-26,41,32,24,28,24,18,93,77,39,30.33,30.17,29.99,20,10,2,16,8,,0.00,5,,350
2012-11-27,62,42,23,23,3,-20,86,31,4,30.24,30.16,30.11,20,10,7,25,7,34,0.00,3,,268
2012-11-28,53,43,33,25,6,-9,37,24,7,30.23,30.15,30.06,20,12,10,15,3,,0.00,3,,291
2012-11-29,64,52,39,19,14,3,34,23,12,30.07,30.03,29.99,20,10,10,22,9,29,0.00,3,,260
2012-11-30,59,49,39,23,19,12,49,36,17,30.08,29.98,29.85,20,12,10,20,5,,0.00,3,,332